Regional Weather Roundup
Issued by NWS Columbia, SC

Home | Current Version | Previous Version | Text Only | Print | Product List | Glossary On
Versions: 1 2 3 4 5 6 7 8 9 10 11 12 13 14 15 16 17 18 19 20 21 22 23 24 25 26 27 28 29 30 31 32 33 34 35 36 37 38 39 40 41 42 43 44 45 46 47 48 49 50
000
ASUS42 KCAE 251810
RWRCAE
REGIONAL WEATHER ROUNDUP
NATIONAL WEATHER SERVICE COLUMBIA SC
200 PM EDT SAT APR 25 2015

NOTE: "FAIR" INDICATES FEW OR NO CLOUDS BELOW 12,000 FEET WITH NO
SIGNIFICANT WEATHER AND/OR OBSTRUCTIONS TO VISIBILITY.

NOT ALL STATIONS ARE QUALITY CONTROLLED BY THE NATIONAL
WEATHER SERVICE. USE DATA WITH CAUTION...ESPECIALLY
DEWPOINT OBSERVATIONS.

SCZ001>056-GAZ040-063>065-077-251900-
...UPSTATE SOUTH CAROLINA...

CITY           SKY/WX    TMP DP  RH WIND       PRES   REMARKS
ANDERSON       CLOUDY    64  60  87 W7        29.75S
6HR MIN TEMP:  55; 6HR MAX TEMP:  65; 6HR PCP:  0.25;

LIBERTY        CLOUDY    61  58  91 CALM      29.75F
SPARTANBURG    MOSUNNY  N/A N/A N/A N5        29.75F HAZE
CLEMSON        CLOUDY    62  56  80 NW5       29.77F
6HR MIN TEMP:  56; 6HR MAX TEMP:  62; 6HR PCP:  0.16;

GREENVILLE     CLOUDY    60  56  86 NW6       29.77F
6HR MIN TEMP:  56; 6HR MAX TEMP:  60; 6HR PCP:  0.13;

GREENWOOD      CLOUDY    65  61  87 S9        29.76F
6HR MIN TEMP:  56; 6HR MAX TEMP:  65; 6HR PCP:  0.27;

GREER          CLOUDY    60  58  92 N3        29.75F
6HR MIN TEMP:  55; 6HR MAX TEMP:  60; 6HR PCP:  0.13;

ROCK HILL      CLOUDY    61  59  93 CALM      29.77F FOG
6HR MIN TEMP:  55; 6HR MAX TEMP:  61; 6HR PCP:  0.15;

CHESTER        RAIN      64  63  94 S5        29.76F
LAURENS        CLOUDY    63  63 100 SW8G18    29.74F


...CENTRAL SOUTH CAROLINA...

CITY           SKY/WX    TMP DP  RH WIND       PRES   REMARKS
COLUMBIA APT   CLOUDY    68  62  81 S12       29.74F
6HR MIN TEMP:  57; 6HR MAX TEMP:  68; 6HR PCP:  0.20;

COLUMBIA OWENS CLOUDY    67  62  84 S6        29.76F
6HR MIN TEMP:  56; 6HR MAX TEMP:  67; 6HR PCP:  0.21;

DARLINGTON     CLOUDY    64  57  77 S9        29.80F
6HR MIN TEMP:  57; 6HR MAX TEMP:  64;

FLORENCE       CLOUDY    65  59  81 S8        29.79F
6HR MIN TEMP:  57; 6HR MAX TEMP:  66; 6HR PCP:  0.16;

MCENTIRE ANGB  CLOUDY    66  63  89 SE9       29.76F
6HR MIN TEMP:  55; 6HR MAX TEMP:  66; 6HR PCP:  0.16;

ORANGEBURG     CLOUDY    69  63  81 S12       29.77F
6HR MIN TEMP:  58; 6HR MAX TEMP:  69; 6HR PCP:  0.15;

SUMTER SHAW    CLOUDY    68  62  82 S13G18    29.75F
6HR MIN TEMP:  57; 6HR MAX TEMP:  68; 6HR PCP:  0.19;

NEWBERRY       CLOUDY    63  63 100 S13       29.76F
AIKEN          CLOUDY    68  63  83 S13       29.78F
BARNWELL       MOCLDY    72  66  83 S10G16    29.76F
MANNING        CLOUDY    68  46  45 S8        29.79S
CAMDEN         CLOUDY    64  63  94 CALM      29.77F
LANCASTER      CLOUDY    63  63 100 S7        29.76F FOG
WINNSBORO      CLOUDY    63  63 100 S8        29.73F


...EASTERN AND COASTAL SOUTH CAROLINA...

CITY           SKY/WX    TMP DP  RH WIND       PRES   REMARKS
MYRTLE BEACH   PTSUNNY   68  61  77 SE10      29.84F
N MYRTLE BCH   CLOUDY    64  57  78 SE7       29.82F
6HR MIN TEMP:  62; 6HR MAX TEMP:  66; 6HR PCP:  0.03;

CONWAY         FAIR      68  63  83 SE7       29.81F
MARION         MOCLDY    63  59  88 SE5       29.81F
HARTSVILLE     CLOUDY    64  61  88 S6        29.79F
FLORENCE       CLOUDY    65  59  81 S8        29.79F
6HR MIN TEMP:  57; 6HR MAX TEMP:  66; 6HR PCP:  0.16;

DARLINGTON     CLOUDY    64  57  77 S9        29.80F
6HR MIN TEMP:  57; 6HR MAX TEMP:  64;

CHARLESTON APT CLOUDY    70  64  81 S10       29.80F
6HR MIN TEMP:  63; 6HR MAX TEMP:  70; 6HR PCP:  0.13;

MOUNT PLEASANT CLOUDY    70  64  83 MISG      29.80F FOG
WALTERBORO     CLOUDY    70  64  83 S12G18    29.80S
BEAUFORT       CLOUDY    70  66  87 S12G30    29.79F
6HR MIN TEMP:  67; 6HR MAX TEMP:  71; 6HR PCP:  0.71;



...EASTERN GEORGIA...

CITY           SKY/WX    TMP DP  RH WIND       PRES   REMARKS
AUGUSTA BUSH F CLOUDY    72  65  78 SW10      29.74F
6HR MIN TEMP:  56; 6HR MAX TEMP:  72; 6HR PCP:  0.58;

AUGUSTA DANIEL CLOUDY    69  64  84 S8        29.75F
6HR MIN TEMP:  58; 6HR MAX TEMP:  69; 6HR PCP:  0.60;

THOMSON        CLOUDY    72  68  88 SW5       29.79F
6HR MIN TEMP:  58; 6HR MAX TEMP:  72;

WASHINGTON     CLOUDY    68  68 100 SW5       29.75F
CLAXTON        FAIR      72  68  88 S5        29.78F
SYLVANIA       CLOUDY    71  68  89 SW6       29.79F
6HR MIN TEMP:  60; 6HR MAX TEMP:  73;

STATESBORO       N/A     72  72 100 S9        29.78F
6HR MIN TEMP:  61; 6HR MAX TEMP:  73;

SAVANNAH       CLOUDY    72  68  87 SE10      29.79F
6HR MIN TEMP:  66; 6HR MAX TEMP:  72; 6HR PCP:  1.80;



...SOUTHERN NORTH CAROLINA...

CITY           SKY/WX    TMP DP  RH WIND       PRES   REMARKS
CHARLOTTE      DRIZZLE   59  56  89 CALM      29.78F FOG
6HR MIN TEMP:  56; 6HR MAX TEMP:  59; 6HR PCP:  0.16;

MONROE         CLOUDY    61  58  90 CALM      29.77F
6HR MIN TEMP:  56; 6HR MAX TEMP:  61; 6HR PCP:  0.10;

WADESBORO      CLOUDY    62  58  87 SE8       29.78F
6HR MIN TEMP:  55; 6HR MAX TEMP:  62; 6HR PCP:  0.10;

ROCKINGHAM     CLOUDY    62  56  83 S9        29.79F
6HR MIN TEMP:  55; 6HR MAX TEMP:  63; 6HR PCP:  0.14;

RUTHERFORDTON  CLOUDY    58  56  94 CALM      29.78F
6HR MIN TEMP:  52; 6HR MAX TEMP:  58; 6HR PCP:  0.08;

ASHEVILLE      MOSUNNY   68  55  63 S12G22    29.73F
6HR MIN TEMP:  54; 6HR MAX TEMP:  69; 6HR PCP:  0.04;


$$



USA.gov is the U.S. government's official web portal to all federal, state and local government web resources and services.